Time,TemperatureF,DewpointF,PressureIn,WindDirection,WindDirectionDegrees,WindSpeedMPH,WindSpeedGustMPH,Humidity,HourlyPrecipIn,Conditions,Clouds,dailyrainin,SoftwareType,DateUTC
2013-03-05 00:11:00,61.5,57.0,29.77,ESE,120,1.0,3.0,84,0.00,,,0.00,weatherlink.com 1.10,2013-03-05 06:11:00,
2013-03-05 00:26:00,61.4,57.0,29.77,ESE,120,1.0,3.0,84,0.00,,,0.00,weatherlink.com 1.10,2013-03-05 06:26:00,
2013-03-05 00:41:00,61.3,57.0,29.77,ESE,115,0.0,3.0,85,0.00,,,0.00,weatherlink.com 1.10,2013-03-05 06:41:00,
2013-03-05 00:56:00,61.1,56.0,29.76,ESE,112,0.0,2.0,84,0.00,,,0.00,weatherlink.com 1.10,2013-03-05 06:56:00,
2013-03-05 01:11:00,59.3,55.0,29.77,ESE,112,0.0,0.0,85,0.00,,,0.00,weatherlink.com 1.10,2013-03-05 07:11:00,
2013-03-05 01:26:00,60.0,57.0,29.77,SSE,155,2.0,3.0,88,0.00,,,0.00,weatherlink.com 1.10,2013-03-05 07:26:00,
2013-03-05 01:41:00,62.0,57.0,29.77,SSE,162,2.0,6.0,84,0.00,,,0.00,weatherlink.com 1.10,2013-03-05 07:41:00,
2013-03-05 01:56:00,62.3,57.0,29.78,SSE,148,1.0,4.0,83,0.00,,,0.00,weatherlink.com 1.10,2013-03-05 07:56:00,
2013-03-05 02:11:00,61.1,56.0,29.79,East,101,0.0,1.0,83,0.00,,,0.00,weatherlink.com 1.10,2013-03-05 08:11:00,
2013-03-05 02:26:00,60.4,56.0,29.78,SSE,166,2.0,4.0,86,0.00,,,0.00,weatherlink.com 1.10,2013-03-05 08:26:00,
2013-03-05 02:41:00,60.2,56.0,29.78,East,87,2.0,2.0,85,0.00,,,0.00,weatherlink.com 1.10,2013-03-05 08:41:00,
2013-03-05 02:56:00,58.0,54.0,29.78,SE,124,0.0,2.0,87,0.00,,,0.00,weatherlink.com 1.10,2013-03-05 08:56:00,
2013-03-05 03:11:00,57.0,54.0,29.79,SSE,162,0.0,1.0,88,0.00,,,0.00,weatherlink.com 1.10,2013-03-05 09:11:00,
2013-03-05 03:26:00,55.9,54.0,29.80,SSE,162,1.0,2.0,93,0.00,,,0.00,weatherlink.com 1.10,2013-03-05 09:26:00,
2013-03-05 03:42:00,56.3,54.0,29.81,NW,325,0.0,1.0,92,0.00,,,0.00,weatherlink.com 1.10,2013-03-05 09:42:00,
2013-03-05 03:57:00,55.5,53.0,29.82,NW,325,0.0,1.0,92,0.00,,,0.00,weatherlink.com 1.10,2013-03-05 09:57:00,
2013-03-05 04:12:00,58.6,57.0,29.90,NNE,29,12.0,25.0,95,0.00,,,0.00,weatherlink.com 1.10,2013-03-05 10:12:00,
2013-03-05 04:27:00,60.8,57.0,29.92,North,360,3.0,9.0,88,0.00,,,0.00,weatherlink.com 1.10,2013-03-05 10:27:00,
2013-03-05 04:42:00,60.3,56.0,29.94,North,11,3.0,4.0,86,0.00,,,0.00,weatherlink.com 1.10,2013-03-05 10:42:00,
2013-03-05 04:57:00,61.5,54.0,29.96,NE,34,13.0,17.0,77,0.00,,,0.00,weatherlink.com 1.10,2013-03-05 10:57:00,
2013-03-05 05:12:00,60.1,46.0,29.99,NNE,13,12.0,21.0,61,0.00,,,0.00,weatherlink.com 1.10,2013-03-05 11:12:00,
2013-03-05 05:27:00,58.0,45.0,30.01,NE,44,15.0,25.0,62,0.00,,,0.00,weatherlink.com 1.10,2013-03-05 11:27:00,
2013-03-05 05:42:00,55.8,41.0,30.03,NE,49,16.0,33.0,59,0.00,,,0.00,weatherlink.com 1.10,2013-03-05 11:42:00,
2013-03-05 05:57:00,54.5,41.0,30.05,NNE,32,18.0,25.0,60,0.00,,,0.00,weatherlink.com 1.10,2013-03-05 11:57:00,
2013-03-05 06:12:00,54.0,40.0,30.06,NNE,18,19.0,32.0,59,0.00,,,0.00,weatherlink.com 1.10,2013-03-05 12:12:00,
2013-03-05 06:27:00,53.2,39.0,30.09,NNE,18,17.0,25.0,60,0.00,,,0.00,weatherlink.com 1.10,2013-03-05 12:27:00,
2013-03-05 06:42:00,52.7,39.0,30.10,NNE,29,13.0,30.0,59,0.00,,,0.00,weatherlink.com 1.10,2013-03-05 12:42:00,
2013-03-05 06:57:00,52.3,39.0,30.11,NE,37,12.0,23.0,60,0.00,,,0.00,weatherlink.com 1.10,2013-03-05 12:57:00,
2013-03-05 07:12:00,52.1,38.0,30.12,NNE,27,10.0,24.0,60,0.00,,,0.00,weatherlink.com 1.10,2013-03-05 13:12:00,
2013-03-05 07:27:00,52.1,38.0,30.12,NE,39,25.0,29.0,58,0.00,,,0.00,weatherlink.com 1.10,2013-03-05 13:27:00,
2013-03-05 07:42:00,52.4,37.0,30.14,NNE,23,16.0,27.0,57,0.00,,,0.00,weatherlink.com 1.10,2013-03-05 13:42:00,
2013-03-05 07:57:00,52.8,37.0,30.15,NNE,12,21.0,29.0,55,0.00,,,0.00,weatherlink.com 1.10,2013-03-05 13:57:00,
2013-03-05 08:13:00,53.5,37.0,30.16,North,358,16.0,30.0,54,0.00,,,0.00,weatherlink.com 1.10,2013-03-05 14:13:00,
2013-03-05 08:28:00,54.0,37.0,30.17,NNE,28,19.0,30.0,52,0.00,,,0.00,weatherlink.com 1.10,2013-03-05 14:28:00,
2013-03-05 08:43:00,54.7,36.0,30.18,NE,44,15.0,31.0,50,0.00,,,0.00,weatherlink.com 1.10,2013-03-05 14:43:00,
2013-03-05 08:58:00,55.2,36.0,30.19,NNW,338,18.0,34.0,48,0.00,,,0.00,weatherlink.com 1.10,2013-03-05 14:58:00,
2013-03-05 09:13:00,55.7,35.0,30.21,NNE,27,23.0,30.0,46,0.00,,,0.00,weatherlink.com 1.10,2013-03-05 15:13:00,
2013-03-05 09:28:00,56.1,35.0,30.22,NE,39,15.0,32.0,46,0.00,,,0.00,weatherlink.com 1.10,2013-03-05 15:28:00,
2013-03-05 09:43:00,56.8,35.0,30.22,NNW,340,16.0,28.0,44,0.00,,,0.00,weatherlink.com 1.10,2013-03-05 15:43:00,
2013-03-05 09:58:00,57.5,34.0,30.23,NNE,22,16.0,25.0,42,0.00,,,0.00,weatherlink.com 1.10,2013-03-05 15:58:00,
2013-03-05 10:13:00,57.8,33.0,30.23,North,358,17.0,30.0,40,0.00,,,0.00,weatherlink.com 1.10,2013-03-05 16:13:00,
2013-03-05 10:28:00,58.5,33.0,30.24,NNE,23,18.0,28.0,39,0.00,,,0.00,weatherlink.com 1.10,2013-03-05 16:28:00,
2013-03-05 10:43:00,59.4,33.0,30.25,North,8,11.0,26.0,37,0.00,,,0.00,weatherlink.com 1.10,2013-03-05 16:43:00,
2013-03-05 10:58:00,59.8,32.0,30.26,NE,37,20.0,25.0,35,0.00,,,0.00,weatherlink.com 1.10,2013-03-05 16:58:00,
2013-03-05 11:13:00,60.7,31.0,30.27,NNE,25,11.0,21.0,33,0.00,,,0.00,weatherlink.com 1.10,2013-03-05 17:13:00,
2013-03-05 11:28:00,61.6,29.0,30.27,ENE,58,22.0,23.0,29,0.00,,,0.00,weatherlink.com 1.10,2013-03-05 17:28:00,
2013-03-05 11:43:00,61.9,28.0,30.27,NNE,14,8.0,27.0,28,0.00,,,0.00,weatherlink.com 1.10,2013-03-05 17:43:00,
2013-03-05 11:58:00,62.6,27.0,30.27,NE,34,17.0,24.0,26,0.00,,,0.00,weatherlink.com 1.10,2013-03-05 17:58:00,
2013-03-05 12:13:00,62.5,26.0,30.27,North,349,15.0,20.0,25,0.00,,,0.00,weatherlink.com 1.10,2013-03-05 18:13:00,
2013-03-05 12:28:00,63.4,25.0,30.27,NNE,30,8.0,26.0,23,0.00,,,0.00,weatherlink.com 1.10,2013-03-05 18:28:00,
2013-03-05 12:43:00,64.4,25.0,30.26,NNW,338,5.0,20.0,22,0.00,,,0.00,weatherlink.com 1.10,2013-03-05 18:43:00,
2013-03-05 12:58:00,64.6,25.0,30.26,NE,35,9.0,23.0,22,0.00,,,0.00,weatherlink.com 1.10,2013-03-05 18:58:00,
2013-03-05 13:13:00,64.8,24.0,30.26,NE,52,12.0,20.0,21,0.00,,,0.00,weatherlink.com 1.10,2013-03-05 19:13:00,
2013-03-05 13:28:00,66.1,24.0,30.25,NNW,337,8.0,21.0,20,0.00,,,0.00,weatherlink.com 1.10,2013-03-05 19:28:00,
2013-03-05 13:43:00,65.5,23.0,30.25,NE,53,17.0,18.0,20,0.00,,,0.00,weatherlink.com 1.10,2013-03-05 19:43:00,
2013-03-05 13:58:00,66.2,24.0,30.25,North,351,11.0,17.0,20,0.00,,,0.00,weatherlink.com 1.10,2013-03-05 19:58:00,
2013-03-05 14:13:00,66.6,23.0,30.24,North,10,13.0,20.0,19,0.00,,,0.00,weatherlink.com 1.10,2013-03-05 20:13:00,
2013-03-05 14:28:00,65.7,23.0,30.24,NE,46,13.0,19.0,20,0.00,,,0.00,weatherlink.com 1.10,2013-03-05 20:28:00,
2013-03-05 14:43:00,66.9,23.0,30.23,NNW,333,10.0,20.0,19,0.00,,,0.00,weatherlink.com 1.10,2013-03-05 20:43:00,
2013-03-05 14:58:00,68.0,23.0,30.24,NNW,336,7.0,16.0,18,0.00,,,0.00,weatherlink.com 1.10,2013-03-05 20:58:00,
2013-03-05 15:13:00,67.8,23.0,30.24,NE,48,5.0,17.0,18,0.00,,,0.00,weatherlink.com 1.10,2013-03-05 21:13:00,
2013-03-05 15:28:00,68.3,23.0,30.24,North,349,10.0,20.0,18,0.00,,,0.00,weatherlink.com 1.10,2013-03-05 21:28:00,
2013-03-05 15:43:00,67.5,21.0,30.24,NNW,333,6.0,15.0,17,0.00,,,0.00,weatherlink.com 1.10,2013-03-05 21:43:00,
2013-03-05 15:58:00,68.3,23.0,30.24,North,7,16.0,16.0,18,0.00,,,0.00,weatherlink.com 1.10,2013-03-05 21:58:00,
2013-03-05 16:13:00,67.9,21.0,30.23,NW,322,5.0,15.0,17,0.00,,,0.00,weatherlink.com 1.10,2013-03-05 22:13:00,
2013-03-05 16:28:00,67.8,21.0,30.24,NNW,345,8.0,16.0,17,0.00,,,0.00,weatherlink.com 1.10,2013-03-05 22:28:00,
2013-03-05 16:44:00,67.7,20.0,30.24,North,9,12.0,16.0,16,0.00,,,0.00,weatherlink.com 1.10,2013-03-05 22:44:00,
2013-03-05 16:59:00,66.0,20.0,30.23,NNW,338,5.0,13.0,17,0.00,,,0.00,weatherlink.com 1.10,2013-03-05 22:59:00,
2013-03-05 17:14:00,66.3,19.0,30.24,NNW,345,15.0,15.0,16,0.00,,,0.00,weatherlink.com 1.10,2013-03-05 23:14:00,
2013-03-05 17:29:00,66.5,19.0,30.24,NNE,27,14.0,18.0,16,0.00,,,0.00,weatherlink.com 1.10,2013-03-05 23:29:00,
2013-03-05 17:44:00,65.6,18.0,30.25,NNE,26,4.0,11.0,16,0.00,,,0.00,weatherlink.com 1.10,2013-03-05 23:44:00,
2013-03-05 17:59:00,64.4,18.0,30.25,NNW,345,6.0,12.0,17,0.00,,,0.00,weatherlink.com 1.10,2013-03-05 23:59:00,
2013-03-05 18:14:00,64.5,19.0,30.25,NNE,22,5.0,9.0,17,0.00,,,0.00,weatherlink.com 1.10,2013-03-06 00:14:00,
2013-03-05 18:29:00,63.3,19.0,30.25,NNW,331,3.0,5.0,18,0.00,,,0.00,weatherlink.com 1.10,2013-03-06 00:29:00,
2013-03-05 18:44:00,62.0,18.0,30.26,NNW,339,3.0,6.0,18,0.00,,,0.00,weatherlink.com 1.10,2013-03-06 00:44:00,
2013-03-05 18:59:00,60.4,18.0,30.27,NNE,20,3.0,5.0,19,0.00,,,0.00,weatherlink.com 1.10,2013-03-06 00:59:00,
2013-03-05 19:14:00,58.4,17.0,30.28,NNW,344,0.0,2.0,20,0.00,,,0.00,weatherlink.com 1.10,2013-03-06 01:14:00,
2013-03-05 19:29:00,56.8,17.0,30.28,NNW,331,1.0,2.0,21,0.00,,,0.00,weatherlink.com 1.10,2013-03-06 01:29:00,
2013-03-05 19:44:00,56.1,18.0,30.28,NNW,347,1.0,2.0,22,0.00,,,0.00,weatherlink.com 1.10,2013-03-06 01:44:00,
2013-03-05 19:59:00,55.3,18.0,30.29,NNE,16,1.0,3.0,23,0.00,,,0.00,weatherlink.com 1.10,2013-03-06 01:59:00,
2013-03-05 20:14:00,54.4,17.0,30.29,North,352,1.0,2.0,23,0.00,,,0.00,weatherlink.com 1.10,2013-03-06 02:14:00,
2013-03-05 20:29:00,53.3,19.0,30.30,East,86,2.0,4.0,26,0.00,,,0.00,weatherlink.com 1.10,2013-03-06 02:29:00,
2013-03-05 20:44:00,51.4,17.0,30.30,NNE,27,1.0,1.0,26,0.00,,,0.00,weatherlink.com 1.10,2013-03-06 02:44:00,
2013-03-05 20:59:00,51.3,17.0,30.31,NNE,13,0.0,1.0,26,0.00,,,0.00,weatherlink.com 1.10,2013-03-06 02:59:00,
2013-03-05 21:14:00,49.2,17.0,30.31,NNE,13,0.0,0.0,28,0.00,,,0.00,weatherlink.com 1.10,2013-03-06 03:14:00,
2013-03-05 21:29:00,48.5,17.0,30.32,NNE,15,0.0,0.0,28,0.00,,,0.00,weatherlink.com 1.10,2013-03-06 03:29:00,
2013-03-05 21:44:00,47.3,17.0,30.33,NNE,15,0.0,0.0,30,0.00,,,0.00,weatherlink.com 1.10,2013-03-06 03:44:00,
2013-03-05 21:59:00,47.0,16.0,30.33,NNE,32,0.0,0.0,29,0.00,,,0.00,weatherlink.com 1.10,2013-03-06 03:59:00,
2013-03-05 22:14:00,47.1,16.0,30.34,NNE,28,1.0,1.0,29,0.00,,,0.00,weatherlink.com 1.10,2013-03-06 04:14:00,
2013-03-05 22:29:00,46.8,17.0,30.34,NNE,29,1.0,1.0,30,0.00,,,0.00,weatherlink.com 1.10,2013-03-06 04:29:00,
2013-03-05 22:44:00,46.5,16.0,30.34,NNE,29,1.0,1.0,30,0.00,,,0.00,weatherlink.com 1.10,2013-03-06 04:44:00,
2013-03-05 22:59:00,45.6,16.0,30.34,NNE,29,1.0,2.0,31,0.00,,,0.00,weatherlink.com 1.10,2013-03-06 04:59:00,
2013-03-05 23:14:00,44.8,17.0,30.35,ENE,76,0.0,0.0,33,0.00,,,0.00,weatherlink.com 1.10,2013-03-06 05:14:00,
2013-03-05 23:29:00,42.7,17.0,30.35,ENE,74,2.0,2.0,35,0.00,,,0.00,weatherlink.com 1.10,2013-03-06 05:29:00,
2013-03-05 23:44:00,42.5,16.0,30.35,NNE,20,4.0,4.0,35,0.00,,,0.00,weatherlink.com 1.10,2013-03-06 05:44:00,
2013-03-05 23:59:00,44.1,16.0,30.35,NE,44,3.0,4.0,32,0.00,,,0.00,weatherlink.com 1.10,2013-03-06 05:59:00,